Find Starlink 11101

NORAD ID: 59715 Int'l Des: 2024-088 Owner: SPXS Country: US Constellation: starlink operational
LEOCIRCULAR

リアルタイム位置

3D地球を読み込み中...

Starlink 11101について

説明を読み込み中...

次回通過

Passes for default location (London). Set your location on the main map for personalized predictions.

高度履歴

Loading altitude history...

軌道要素

1 59715U 24088H 26126.18426882 .00000156 00000-0 61514-5 0 9999
2 59715 53.1595 42.7510 0001205 88.2301 271.8855 15.69695589115305
Epoch: May 6, 2026 • Age: 7 hours

現在のステータス

高度 369.1 km
速度 7.69 km/s
衛星直下点 -29.26°S, 26.37°W
打ち上げ日 May 10, 2024
運用期間 1.9 years
タイプ internet

技術仕様

分類 Payload
質量 960.00 kg
乾燥質量 910.00 kg
総質量 960.00 kg
長さ 0.30 m
直径 4.10 m
スパン 29.00 m
形状 Box + pan
製造者 SPXS
バスタイプ Starlink V2MD
フェーズステータス In Orbit
所有者/国 SPXS/US

Most Searched